SWR935L LGAV-LSZH

Flight info

Callsign SWR935L
Flight time N/A
Altitude 36000
Route KOR UL53 ELVAS DCT TUMBO DCT RODON DCT VAKSU DCT SPL DCT MONFA DCT BAKOR DCT SOTOV P66 KPT L856 NEGRA
Aircraft B77W/H-SDE1E2E3FGHIJ2J3J4J5M1RWXY/LB1D1

Departure

Time N/A
Airport Athens Eleftherios Venizelos International Airport (LGAV)

Arrival

Time 2026-04-30 20:38
Airport Zürich Airport (LSZH)
Time Latitude Longitude Altitude Speed Heading
2026-04-30 20:15 47.56686 10.09124 35923 ft 485 kts 305°
2026-04-30 20:15 47.58377 10.04754 35079 ft 489 kts 305°
2026-04-30 20:16 47.60020 10.00497 34312 ft 488 kts 305°
2026-04-30 20:16 47.61704 9.96129 33367 ft 489 kts 305°
2026-04-30 20:16 47.63386 9.91760 32711 ft 485 kts 305°
2026-04-30 20:16 47.65046 9.87434 32119 ft 480 kts 305°
2026-04-30 20:17 47.66688 9.83151 31543 ft 476 kts 305°
2026-04-30 20:17 47.68318 9.78897 30972 ft 472 kts 305°
2026-04-30 20:17 47.69931 9.74682 30445 ft 468 kts 305°
2026-04-30 20:17 47.71406 9.70379 29789 ft 470 kts 297°
2026-04-30 20:18 47.72360 9.65723 29220 ft 471 kts 285°
2026-04-30 20:18 47.72809 9.60920 28675 ft 469 kts 276°
2026-04-30 20:18 47.72744 9.56080 28167 ft 467 kts 269°
2026-04-30 20:18 47.72533 9.51296 27614 ft 463 kts 269°
2026-04-30 20:19 47.72301 9.46552 27072 ft 456 kts 265°
2026-04-30 20:19 47.71863 9.43504 26725 ft 457 kts 253°
2026-04-30 20:19 47.69869 9.38063 26067 ft 452 kts 231°
2026-04-30 20:19 47.67813 9.34492 25596 ft 447 kts 229°
2026-04-30 20:20 47.65841 9.31062 25086 ft 444 kts 230°
2026-04-30 20:20 47.63901 9.27593 24605 ft 442 kts 231°
2026-04-30 20:20 47.61962 9.24071 24103 ft 439 kts 231°
2026-04-30 20:20 47.60094 9.20529 23561 ft 433 kts 237°
2026-04-30 20:21 47.58853 9.16517 22942 ft 428 kts 258°
2026-04-30 20:21 47.58364 9.12237 22465 ft 418 kts 264°
2026-04-30 20:21 47.58061 9.08003 21943 ft 408 kts 274°
2026-04-30 20:21 47.58569 9.03945 21515 ft 397 kts 293°
2026-04-30 20:22 47.59769 9.00328 21028 ft 390 kts 308°
2026-04-30 20:22 47.61513 8.97299 20559 ft 387 kts 319°
2026-04-30 20:22 47.63456 8.94482 20053 ft 395 kts 320°
2026-04-30 20:22 47.65430 8.91640 19559 ft 397 kts 319°
2026-04-30 20:23 47.67394 8.88772 19051 ft 396 kts 319°
2026-04-30 20:23 47.69343 8.85881 18552 ft 396 kts 318°
2026-04-30 20:23 47.71280 8.82981 17968 ft 395 kts 318°
2026-04-30 20:23 47.73207 8.80086 17442 ft 393 kts 317°
2026-04-30 20:24 47.75010 8.77082 16909 ft 389 kts 306°
2026-04-30 20:24 47.76070 8.73396 16443 ft 393 kts 283°
2026-04-30 20:24 47.76222 8.69342 15957 ft 394 kts 265°
2026-04-30 20:24 47.75575 8.65414 15450 ft 393 kts 245°
2026-04-30 20:25 47.71662 8.60245 14416 ft 384 kts 195°
2026-04-30 20:25 47.69052 8.59597 13917 ft 376 kts 179°
2026-04-30 20:26 47.64049 8.61015 12911 ft 359 kts 153°
2026-04-30 20:26 47.59611 8.64241 12003 ft 352 kts 152°
2026-04-30 20:26 47.57432 8.65791 11565 ft 350 kts 153°
2026-04-30 20:27 47.53057 8.68804 10987 ft 336 kts 153°
2026-04-30 20:27 47.49640 8.71141 10849 ft 316 kts 153°
2026-04-30 20:28 47.45865 8.73723 10668 ft 294 kts 154°
2026-04-30 20:28 47.42188 8.76242 10095 ft 289 kts 154°
2026-04-30 20:29 47.38561 8.78719 9396 ft 287 kts 154°
2026-04-30 20:30 47.33392 8.82240 8513 ft 258 kts 154°
2026-04-30 20:30 47.28507 8.84933 7642 ft 245 kts 186°
2026-04-30 20:31 47.24991 8.79976 6930 ft 254 kts 245°
2026-04-30 20:32 47.23279 8.72939 6430 ft 235 kts 277°
2026-04-30 20:32 47.25206 8.69173 5898 ft 236 kts 329°
2026-04-30 20:33 47.26625 8.67979 5605 ft 234 kts 333°
2026-04-30 20:33 47.29508 8.65961 5097 ft 218 kts 336°
2026-04-30 20:33 47.30850 8.65048 4795 ft 207 kts 338°
2026-04-30 20:34 47.33225 8.63425 4258 ft 182 kts 339°
2026-04-30 20:34 47.35535 8.61847 3716 ft 174 kts 340°
2026-04-30 20:35 47.36573 8.61133 3483 ft 156 kts 343°
2026-04-30 20:35 47.37534 8.60479 3251 ft 151 kts 343°
2026-04-30 20:35 47.39440 8.59172 2818 ft 150 kts 343°
2026-04-30 20:36 47.40358 8.58541 2563 ft 146 kts 342°
2026-04-30 20:36 47.41281 8.57915 2357 ft 147 kts 341°
2026-04-30 20:36 47.43126 8.56650 1858 ft 149 kts 338°
2026-04-30 20:37 47.44026 8.56028 1664 ft 153 kts 337°
2026-04-30 20:37 47.44970 8.55382 1446 ft 150 kts 336°
2026-04-30 20:37 47.45827 8.54793 1401 ft 131 kts 335°
2026-04-30 20:37 47.46508 8.54324 1383 ft 90 kts 335°
2026-04-30 20:38 47.46918 8.54042 1384 ft 45 kts 335°
2026-04-30 20:38 47.47016 8.54079 1384 ft 16 kts 73°
2026-04-30 20:38 47.46997 8.54231 1387 ft 16 kts 126°
2026-04-30 20:39 47.46817 8.54405 1386 ft 16 kts 158°
2026-04-30 20:39 47.46715 8.54465 1386 ft 16 kts 158°
2026-04-30 20:39 47.46617 8.54533 1402 ft 16 kts 154°
2026-04-30 20:40 47.46423 8.54663 1401 ft 17 kts 155°
2026-04-30 20:40 47.46313 8.54740 1387 ft 18 kts 155°
2026-04-30 20:40 47.46202 8.54817 1399 ft 18 kts 155°
2026-04-30 20:41 47.45982 8.54969 1407 ft 18 kts 155°
2026-04-30 20:41 47.45871 8.55044 1409 ft 18 kts 155°
2026-04-30 20:41 47.45759 8.55120 1404 ft 18 kts 155°
2026-04-30 20:41 47.45648 8.55197 1407 ft 18 kts 154°
2026-04-30 20:42 47.45536 8.55277 1411 ft 18 kts 154°
2026-04-30 20:42 47.45425 8.55354 1412 ft 18 kts 155°
2026-04-30 20:42 47.45284 8.55539 1413 ft 14 kts 114°
2026-04-30 20:43 47.45271 8.55647 1414 ft 9 kts 96°
2026-04-30 20:43 47.45262 8.55705 1411 ft 3 kts 124°
2026-04-30 20:43 47.45243 8.55718 1415 ft 3 kts 170°
2026-04-30 20:44 47.45196 8.55714 1417 ft 2 kts 185°
2026-04-30 20:44 47.45192 8.55713 1417 ft 0 kts 185°